TimeMST,TemperatureF,Dew PointF,Humidity,Sea Level PressureIn,VisibilityMPH,Wind Direction,Wind SpeedMPH,Gust SpeedMPH,PrecipitationIn,Events,Conditions,WindDirDegrees,DateUTC
12:53 AM,28.0,21.0,75,30.11,10.0,WNW,5.8,-,N/A,,Clear,300,2012-02-17 07:53:00
1:53 AM,28.0,21.0,75,30.11,10.0,West,8.1,-,N/A,,Clear,280,2012-02-17 08:53:00
2:53 AM,24.8,19.4,80,30.03,10.0,WNW,6.9,-,N/A,,Clear,300,2012-02-17 09:53:00
3:53 AM,24.1,19.9,84,30.11,10.0,Calm,Calm,-,N/A,,Clear,0,2012-02-17 10:53:00
4:53 AM,26.1,19.9,78,30.11,10.0,NW,10.4,-,N/A,,Clear,310,2012-02-17 11:53:00
5:53 AM,25.0,19.0,78,30.13,10.0,WNW,5.8,-,N/A,,Clear,300,2012-02-17 12:53:00
6:53 AM,28.0,18.0,66,30.15,10.0,NW,10.4,-,N/A,,Clear,310,2012-02-17 13:53:00
7:53 AM,28.9,19.9,69,30.17,10.0,NNW,6.9,-,N/A,,Clear,330,2012-02-17 14:53:00
8:53 AM,33.1,23.0,66,30.17,10.0,NNW,4.6,-,N/A,,Clear,330,2012-02-17 15:53:00
9:53 AM,34.0,24.1,67,30.16,10.0,NNW,3.5,-,N/A,,Clear,340,2012-02-17 16:53:00
10:53 AM,43.0,25.0,49,30.14,10.0,North,13.8,-,N/A,,Clear,350,2012-02-17 17:53:00
11:53 AM,45.0,24.1,44,30.13,10.0,North,15.0,-,N/A,,Clear,360,2012-02-17 18:53:00
12:53 PM,46.9,24.1,41,30.12,10.0,North,11.5,-,N/A,,Clear,360,2012-02-17 19:53:00
1:53 PM,46.4,19.4,34,30.06,10.0,NE,8.1,-,N/A,,Clear,40,2012-02-17 20:53:00
2:53 PM,45.0,17.1,33,30.14,10.0,NE,8.1,-,N/A,,Clear,40,2012-02-17 21:53:00
3:53 PM,43.0,21.0,42,30.16,10.0,ENE,9.2,-,N/A,,Partly Cloudy,70,2012-02-17 22:53:00
4:53 PM,37.9,25.0,60,30.19,10.0,NE,13.8,-,N/A,,Scattered Clouds,50,2012-02-17 23:53:00
5:53 PM,34.0,26.1,73,30.22,10.0,ENE,9.2,-,N/A,,Clear,70,2012-02-18 00:53:00
6:53 PM,30.9,25.0,79,30.24,10.0,NE,8.1,-,N/A,,Partly Cloudy,50,2012-02-18 01:53:00
7:53 PM,30.2,24.8,80,30.17,10.0,ENE,6.9,-,N/A,,Mostly Cloudy,60,2012-02-18 02:53:00
9:53 PM,28.0,24.1,85,30.28,10.0,Calm,Calm,-,N/A,,Overcast,0,2012-02-18 04:53:00
10:53 PM,27.0,23.0,85,30.27,10.0,SW,3.5,-,N/A,,Mostly Cloudy,230,2012-02-18 05:53:00
11:53 PM,26.1,21.9,84,30.25,10.0,Calm,Calm,-,N/A,,Clear,0,2012-02-18 06:53:00